Terminal Aerodrome Forecast
Issued by NWS Lake Charles, LA

Home | Current Version | Previous Version | Text Only | Print | Product List | Glossary On
Versions: 1 2 3 4 5 6 7 8 9 10 11 12 13 14 15 16 17 18 19 20 21 22 23 24 25 26 27 28 29
992
FTUS44 KLCH 210858 AAB
TAFARA
TAF AMD
KARA 210858Z 2109/2206 00000KT P6SM BKN005
      TEMPO 2111/2115 1SM BR OVC003
     FM211500 VRB05KT P6SM VCSH OVC025
     FM212000 27008KT P6SM BKN050
     FM220100 32005KT P6SM SCT050=

USA.gov is the U.S. government's official web portal to all federal, state and local government web resources and services.